STARLINK-1274, 45387

Orbit data source: Space-Track

STARLINK-1274, 45387 is a payload satellite owned by SpaceX/Seattle (US) in LEO that was launched on Wed, 18 Mar 2020 UTC via an FALCON 9 launch vehicle from the Air Force Eastern Test Range (AFETR). Payloads include a variety of satellites, spacecraft, and rockets equipped with specific instruments for various scientific and technological missions. These include communications satellites like Starlink; space stations such as the ISS; scientific satellites like the Hubble; Earth observation satellites from companies like Planet Labs, Umbra, and HawkEye 360; GPS; miniature CubeSats for education and research; and military/defense satellites.

Loading next visibility...
STARLINK-1274 details
Identifier
45387, 2020-019AD
Orbit
LEO
Last TLE update7 hours ago
Origin
Flag of USSpaceX/Seattle (US)
ManufacturerSpaceX/Seattle
MissionOperational Commercial Communications
Bus & MotorSTARLINK, Unknown motor
Mass260 kg wet, ~248 kg dry
Launch date (UTC)
2020-03-18 (5 years ago)
Launch vehicle
FALCON 9
Launch site
Air Force Eastern Test Range (AFETR)
Object type
Payload
Rocket body
Debris
Shape & HBRBox + 1 Pan, 8.86 m
Radar Cross Section13.562 m², Large (>1 m²)

Expand to show TLE details & history

TLE from 7 hours ago
0 STARLINK-1274
1 45387U 20019AD  24361.14452652  .00028528  00000-0  19248-2 0  9995
2 45387  53.0546 315.3251 0001186 106.9229 253.1890 15.06430053263889
Epoch: 2024-12-26T03:28Z
Definitive object data (Epoch: 2024-12-26T03:28:07.091Z)
Latitude-0.00002°
Longitude168.1674°
Altitude548.236 km
Speed7.589 km/s
True Right ascension21h 01m 18s
True Declination0° 00' 00"
Sunlit
Object was in daylight at TLE epoch
Visualization TLE readout
Latitude43.77367°
Longitude-58.89743°
Altitude550.674 km
Speed7.592 km/s
Apparent Right ascension01h 52m 53s
Apparent Declination8° 20' 41"
Sunlit
Object is in full shadow
Visualization observer readout
Local Sidereal Time09:43:19
Azimuth294.823° NW
Elevation-14.985°
Doppler factor1
Orbital elements
Apogee altitude548.212 km
Perigee altitude546.569 km
Semi-major axis6,925.527 km
Eccentricity0.0001186
Inclination53.0546°
RAAN315.3251°
Arg. of periapsis106.9229°
True anomaly253.17599°
Mean anomaly253.189°
Eccentric anomaly253.1825°
Mean motion3.76586 °/min
BSTAR0.0019248
Orbital period95.6 mins
Loading maneuver chart data...
Loading historical data...
Loading historical data...
Loading historical data...
Loading historical data...
Loading historical data...
Loading historical data...
Loading historical data...

STARLINK-1274 Visibility forecast

Observer location: undefined°, undefined

Span
Click to sort rows by Start time (UTC) header in descending order
Start Az.
Max El. time (UTC)
Max El. Az.
Max El.
End time (UTC)
End Az.
6 mins2024-12-26 22:43:09.506Z176.135° S2024-12-26 22:46:09.506Z127.086° SE19.581°2024-12-26 22:49:09.506Z79.394° E
6 mins2024-12-27 00:23:09.506Z255.741° W2024-12-27 00:25:09.506Z313.666° NW39.052°2024-12-27 00:29:09.506Z42.548° NE
4 mins2024-12-27 02:04:09.506Z319.475° NNW2024-12-27 02:05:09.506Z336.518° NNW16.027°2024-12-27 02:08:09.506Z24.383° NE
5 mins2024-12-27 05:25:09.506Z344.2° N2024-12-27 05:27:09.506Z29.014° NE24.94°2024-12-27 05:30:09.506Z83.273° E
6 mins2024-12-27 07:04:09.506Z295.414° NW2024-12-27 07:07:09.506Z202.102° SSW37.909°2024-12-27 07:10:09.506Z149.884° SSE
|